Weather in Oyonnax

France     46°15′33″N   5°39′28″E
temp.,
°C
wind,
m/s
gust,
m/s
humid.,
%
clouds,
%
prec.,
mm/h
press.,
hPa
HPBL,
m
1 july, fri
fri123:00+11nw23100100 4.2 1019201
02:00+10wnw23100100 4.9 1019195
05:00+9nnw1198100 3.4 102091
08:00+10nw119412 6.9 1020245
11:00+15nnw23573 0.0 10201085
14:00+18nw32440 0.0 10191620
17:00+20nw32411 0.0 10191776
20:00+16nw22655 0.0 102082
2 july, sat
sat223:00+10ne11810 0.0 102315
02:00+10e22810 0.0 102227
05:00+9e22920 0.0 102228
08:00+13ese22780 0.0 1022223
11:00+20se11510 0.0 1021774
14:00+25sw13350 0.0 10201346
17:00+25w34330 0.0 10191403
20:00+21wnw11660 0.0 101911
3 july, sun
sun323:00+16e11580 0.0 102011
02:00+16ese11470 0.0 102011
05:00+15ese21497 0.0 102011
08:00+18se116357 0.0 102058
11:00+24wsw1245100 0.0 1019625
14:00+26wnw33388 0.0 10191293
17:00+26nw3342100 0.0 10191280
20:00+22nnw23735 0.0 101998
4 july, mon
mon423:00+16nne1191100 0.3 102111
02:00+15ene1192100 0.6 102111
05:00+15n0093100 1.2 102111
08:00+17e119288 1.8 102153
11:00+23wnw116216 0.0 1020857
14:00+25nw335594 0.1 10191568
17:00+25nw325653 1.1 10201344
20:00+21nnw24710 1.1 1020276
5 july, tue
tue523:00+16ene22920 0.5 102226
02:00+15e11950 0.9 102212
05:00+14e219581 0.3 102221
08:00+17ene11886 0.3 1023111
11:00+24n11535 0.0 1022980
14:00+26nw21427 0.0 10211482
17:00+26nw3243100 0.0 10211266
20:00+21nnw24663 0.0 1020137